Location: Mercogliano
(40.9167°N, 14.7333°E)
Time: 07:16:27
(UTC+00:00)

Cosmos 2150 Rocket - Pass Details

Date: 26 January 2021
Orbit: 748 x 808 km, 74.0° (Epoch: 04 March)

Event Time Altitude Azimuth Distance (km) Brightness Sun altitude
Exits shadow 03:25:59 - 7° (N) 2,448 6.7 -32.2°
Reaches altitude 10° 03:26:20 10° 10° (N) 2,354 6.6 -32.2°
Maximum altitude 03:30:18 21° 58° (ENE) 1,739 6.3 -31.4°
Drops below altitude 10° 03:34:17 10° 106° (ESE) 2,370 7.4 -30.7°
Sets 03:37:18 0° 122° (ESE) 3,304 8.1 -30.1°
